La Grande, OR

12:44 PM PDT on October 18, 2019 (GMT -0700)
La Grande-Union County

Weather History for KLGD - August, 2019

Change the Weather History Date:

Saturday, August 17, 2019

  Actual Average Record
Temperature  
Mean Temperature 68 °F -  
Max Temperature 81 °F 82 °F 102 °F (1967)
Min Temperature 55 °F 48 °F 33 °F (2002)
Cooling Degree Days 3    
Growing Degree Days 18 (Base 50)    
Moisture  
Dew Point 44 °F    
Average Humidity 44    
Maximum Humidity 67    
Minimum Humidity 27    
Precipitation  
Precipitation 0.00 in - - ()
Sea Level Pressure  
Sea Level Pressure 30.33 in    
Wind  
Wind Speed 10 mph (NW)    
Max Wind Speed 18 mph    
Max Gust Speed 18 mph    
Visibility 10 miles    
Events      
Averages and records for this station are not official NWS values.
T = Trace of Precipitation, MM = Missing Value Source: NWS Daily Summary

Daily Weather History Graph

Daily Weather History Graph

Search for Another Location

Airport or City:

Astronomy

Aug. 17, 2019 Rise Set
Actual Time 5:55 AM PDT 7:55 PM PDT
Civil Twilight 5:23 AM PDT 8:27 PM PDT
Nautical Twilight 4:44 AM PDT 9:06 PM PDT
Astronomical Twilight 4:00 AM PDT 9:49 PM PDT
Moon 9:20 PM PDT (8/17) 7:51 AM PDT (8/17)
Length of Visible Light 15h 04m
Length of Day
14h 00m
Waning Gibbous, 95% of the Moon is Illuminated
Aug 17
Waning Gibbous
Aug 23
Last Quarter
Aug 30
New
Sep 5
First Quarter
Sep 13
Full

Hourly Weather History & Observations

Time (PDT) Temp. Dew Point Humidity Pressure Visibility Wind Dir Wind Speed Gust Speed Precip Events Conditions
12:56 AM 62.1 °F 37.9 °F 41% 30.34 in 10.0 mi NW 6.9 mph - N/A   Clear
1:56 AM 63.0 °F 39.9 °F 43% 30.33 in 10.0 mi WNW 16.1 mph - N/A   Clear
2:56 AM 63.0 °F 42.1 °F 46% 30.33 in 10.0 mi WNW 15.0 mph - N/A   Clear
3:56 AM 60.1 °F 43.0 °F 53% 30.33 in 10.0 mi NW 18.4 mph - N/A   Clear
4:56 AM 59.0 °F 44.1 °F 58% 30.35 in 10.0 mi WNW 9.2 mph - N/A   Clear
5:56 AM 57.9 °F 42.1 °F 56% 30.35 in 10.0 mi North - - N/A   Clear
6:56 AM 55.9 °F 43.0 °F 62% 30.36 in 10.0 mi North - - N/A   Clear
7:56 AM 61.0 °F 43.0 °F 52% 30.38 in 10.0 mi North - - N/A   Clear
8:56 AM 64.9 °F 43.0 °F 45% 30.38 in 10.0 mi WNW 10.4 mph - N/A   Clear
9:56 AM 68.0 °F 43.0 °F 40% 30.36 in 10.0 mi WNW 11.5 mph - N/A   Clear
10:56 AM 71.1 °F 44.1 °F 38% 30.35 in 10.0 mi East 6.9 mph - N/A   Clear
11:56 AM 73.9 °F 45.0 °F 35% 30.35 in 10.0 mi WNW 10.4 mph - N/A   Clear
12:56 PM 75.9 °F 46.9 °F 36% 30.34 in 10.0 mi NNW 8.1 mph 17.3 mph N/A   Clear
1:56 PM 78.1 °F 46.9 °F 33% 30.32 in 10.0 mi Variable 6.9 mph - N/A   Clear
2:56 PM 80.1 °F 43.0 °F 27% 30.31 in 10.0 mi NNW 8.1 mph - N/A   Clear
3:56 PM 80.1 °F 44.1 °F 28% 30.29 in 10.0 mi North 10.4 mph 18.4 mph N/A   Clear
4:56 PM 81.0 °F 44.1 °F 27% 30.27 in 10.0 mi North 9.2 mph - N/A   Clear
5:56 PM 79.0 °F 45.0 °F 30% 30.27 in 10.0 mi NNW 6.9 mph - N/A   Clear
6:56 PM 73.9 °F 46.9 °F 38% 30.27 in 10.0 mi NW 12.7 mph - N/A   Clear
8:56 PM 68.0 °F 46.9 °F 47% 30.29 in 10.0 mi WNW 5.8 mph - N/A   Clear
9:56 PM 61.0 °F 46.0 °F 58% 30.31 in 10.0 mi ENE 3.5 mph - N/A   Clear
10:56 PM 61.0 °F 46.9 °F 60% 30.30 in 10.0 mi Calm Calm - N/A   Clear
11:56 PM 57.0 °F 46.0 °F 67% 30.30 in 10.0 mi Calm Calm - N/A   Clear